Simultaneous Nadir Overpasses (SNOs) Predictions

Prediction of SNOs between LANDSAT-8 and NOAA-19 Satellite Orbit:

Table of predicted SNOs for the next 14.0 days since TLE Epoch: 8/31/2019
Index Date (LANDSAT-8) Time (LANDSAT-8) Lat,Lon (LANDSAT-8) SZA (LANDSAT-8 ) Date (NOAA-19) Time (NOAA-19) Lat,Lon (NOAA-19) SZA (NOAA-19 ) Distance(km) Time Diff (sec)
1 08/31/2019 20:12:51 -79.05, 77.90 108.77 08/31/2019 20:12:25 -79.03, 77.90 108.80 2.75 26
2 08/31/2019 21:02:18 79.01,-114.74 71.19 08/31/2019 21:03:31 79.02,-114.81 71.22 2.05 73
3 09/03/2019 01:46:35 79.04, 174.42 72.05 09/03/2019 01:45:55 79.06, 174.36 72.05 2.11 40
4 09/03/2019 02:36:03 -79.02, -18.12 107.98 09/03/2019 02:36:49 -79.04, -18.21 107.95 3.22 46
5 09/05/2019 07:20:20 -79.06, -88.95 107.11 09/05/2019 07:19:13 -79.08, -89.02 107.11 2.66 67
6 09/05/2019 08:09:46 79.05, 78.63 72.90 09/05/2019 08:10:18 79.04, 78.46 72.90 3.50 32
7 09/07/2019 13:43:31 -79.06, 175.27 106.25 09/07/2019 13:43:36 -79.06, 175.13 106.26 2.78 5
8 09/09/2019 19:17:14 79.08, -88.02 74.64 09/09/2019 19:17:04 79.05, -88.08 74.60 3.82 10
9 09/09/2019 20:06:44 -78.98, 79.00 105.49 09/09/2019 20:07:55 -78.91, 80.31 105.44 29.07 71
10 09/12/2019 00:51:00 -79.05, 8.38 104.54 09/12/2019 00:50:23 -79.07, 8.46 104.53 2.90 37




NCC Satellite Simultaneous Nadir Overpasses (SNOs) Prediction Service
